Date String (YYYY-MM-DD hh:mm:ss) UTC,Instrument flags,Ambient pressure (hPa),Sample flow (lpm),Bypass flow (lpm),Sample temperature (°C),Ambient temperature (°C),ASC tube jacket temperature (°C),LED temperature (°C),Box temperature (°C),Sample RH (%),Span deviation,Mass concentration (μg/m³),Mass concentration (μg/m³),Mass concentration (μg/m³)
DateTimeUTC,F1_M11,P_M11,Q1_M11,Q2_M11,T1_M11,T2_M11,T3_M11,T4_M11,T5_M11,U1_M11,ZSPAN_M11,X0_M11,X2_M11,X1_M11
2022-07-06 01:00:00,,0826.2,4.99,0.00,29.5,28.4,00.0,38.2,31.5,23.6,0000.0,0002.88,0001.61,0001.21
2022-07-06 01:01:00,,0826.3,4.99,0.00,29.5,28.4,00.0,38.2,31.5,23.6,0000.0,0002.76,0001.64,0001.21
2022-07-06 01:02:00,,0826.3,5.00,0.00,29.5,27.8,00.0,38.2,31.5,23.4,0000.0,0002.48,0001.62,0001.22
2022-07-06 01:03:00,,0826.3,5.01,0.00,29.5,27.0,00.0,38.1,31.3,23.2,0000.0,0003.35,0001.66,0001.21
2022-07-06 01:04:00,,0826.4,5.00,0.00,29.5,26.9,00.0,38.1,31.2,23.2,0000.0,0003.89,0001.68,0001.21
2022-07-06 01:05:00,,0826.4,5.00,0.00,29.4,26.9,00.0,38.1,31.1,23.2,0000.0,0003.97,0001.69,0001.20
2022-07-06 01:06:00,,0826.4,5.00,0.00,29.3,27.1,00.0,38.1,31.1,23.3,0000.0,0004.02,0001.71,0001.21
2022-07-06 01:07:00,,0826.5,5.00,0.00,29.3,27.2,00.0,38.1,31.1,23.5,0000.0,0004.03,0001.71,0001.21
2022-07-06 01:08:00,,0826.4,5.00,0.00,29.3,27.4,00.0,38.1,31.1,23.5,0000.0,0004.07,0001.70,0001.21
2022-07-06 01:09:00,,0826.4,5.00,0.00,29.3,27.6,00.0,38.1,31.2,23.4,0000.0,0004.08,0001.71,0001.22
2022-07-06 01:10:00,,0826.4,5.00,0.00,29.3,27.8,00.0,38.1,31.2,23.3,0000.0,0004.01,0001.66,0001.22
2022-07-06 01:11:00,,0826.4,5.00,0.00,29.3,27.9,00.0,38.1,31.3,23.2,0000.0,0004.21,0001.63,0001.21
2022-07-06 01:12:00,,0826.5,4.99,0.00,29.3,28.0,00.0,38.1,31.3,23.1,0000.0,0004.29,0001.61,0001.21
2022-07-06 01:13:00,,0826.5,5.00,0.00,29.4,28.1,00.0,38.1,31.3,23.1,0000.0,0004.46,0001.64,0001.21
2022-07-06 01:14:00,,0826.5,5.00,0.00,29.4,28.2,00.0,38.1,31.4,23.1,0000.0,0003.98,0001.64,0001.21
2022-07-06 01:15:00,,0826.5,5.00,0.00,29.4,28.3,00.0,38.1,31.4,23.0,0000.0,0003.19,0001.61,0001.21
2022-07-06 01:16:00,,0826.5,5.00,0.00,29.5,28.4,00.0,38.2,31.5,23.1,0000.0,0003.09,0001.60,0001.21
2022-07-06 01:17:00,,0826.4,5.00,0.00,29.5,28.5,00.0,38.2,31.5,23.1,0000.0,0003.05,0001.56,0001.20
2022-07-06 01:18:00,,0826.5,5.00,0.00,29.5,28.2,00.0,38.2,31.5,22.9,0000.0,0003.17,0001.54,0001.20
2022-07-06 01:19:00,,0826.4,5.00,0.00,29.5,27.3,00.0,38.1,31.4,23.0,0000.0,0003.15,0001.53,0001.19
2022-07-06 01:20:00,,0826.4,5.00,0.00,29.5,26.8,00.0,38.1,31.3,23.2,0000.0,0003.13,0001.51,0001.18
2022-07-06 01:21:00,,0826.4,5.00,0.00,29.4,26.8,00.0,38.1,31.2,23.0,0000.0,0003.13,0001.52,0001.18
2022-07-06 01:22:00,,0826.4,5.00,0.00,29.3,26.9,00.0,38.1,31.1,23.2,0000.0,0002.88,0001.52,0001.17
2022-07-06 01:23:00,,0826.4,4.99,0.00,29.3,27.1,00.0,38.1,31.1,23.1,0000.0,0002.83,0001.55,0001.17
2022-07-06 01:24:00,,0826.3,5.00,0.00,29.3,27.3,00.0,38.1,31.1,23.3,0000.0,0002.63,0001.51,0001.16
2022-07-06 01:25:00,,0826.3,5.00,0.00,29.3,27.5,00.0,38.1,31.1,23.2,0000.0,0002.53,0001.48,0001.16
2022-07-06 01:26:00,,0826.3,5.00,0.00,29.3,27.7,00.0,38.1,31.2,23.2,0000.0,0002.61,0001.50,0001.17
2022-07-06 01:27:00,,0826.2,4.99,0.00,29.3,27.8,00.0,38.1,31.2,23.1,0000.0,0002.78,0001.52,0001.17
2022-07-06 01:28:00,,0826.2,5.00,0.00,29.3,28.0,00.0,38.1,31.2,23.2,0000.0,0002.74,0001.52,0001.16
2022-07-06 01:29:00,,0826.2,5.01,0.00,29.4,28.1,00.0,38.1,31.3,23.3,0000.0,0002.59,0001.52,0001.16
2022-07-06 01:30:00,,0826.2,5.00,0.00,29.4,28.2,00.0,38.1,31.3,22.6,0000.0,0002.59,0001.52,0001.16
2022-07-06 01:31:00,,0826.2,5.00,0.00,29.4,28.3,00.0,38.1,31.4,22.5,0000.0,0002.63,0001.49,0001.15
2022-07-06 01:32:00,,0826.2,5.01,0.00,29.4,28.4,00.0,38.1,31.4,22.5,0000.0,0003.03,0001.51,0001.13
2022-07-06 01:33:00,,0826.2,4.99,0.00,29.5,28.5,00.0,38.1,31.5,22.5,0000.0,0003.09,0001.53,0001.13
2022-07-06 01:34:00,,0826.2,4.99,0.00,29.5,28.5,00.0,38.2,31.5,22.4,0000.0,0002.94,0001.48,0001.14
2022-07-06 01:35:00,,0826.2,5.00,0.00,29.5,27.9,00.0,38.1,31.4,22.5,0000.0,0002.98,0001.48,0001.13
2022-07-06 01:36:00,,0826.2,5.00,0.00,29.5,27.1,00.0,38.1,31.3,22.4,0000.0,0002.97,0001.45,0001.11
2022-07-06 01:37:00,,0826.2,5.01,0.00,29.4,26.8,00.0,38.1,31.2,22.5,0000.0,0002.92,0001.43,0001.09
2022-07-06 01:38:00,,0826.1,4.99,0.00,29.4,26.9,00.0,38.1,31.1,22.6,0000.0,0002.88,0001.42,0001.07
2022-07-06 01:39:00,,0826.2,4.99,0.00,29.3,27.0,00.0,38.1,31.1,22.7,0000.0,0002.83,0001.40,0001.07
2022-07-06 01:40:00,,0826.1,5.01,0.00,29.3,27.2,00.0,38.1,31.1,22.7,0000.0,0002.76,0001.36,0001.05
2022-07-06 01:41:00,,0826.2,4.98,0.00,29.3,27.4,00.0,38.1,31.1,22.9,0000.0,0002.70,0001.36,0001.04
2022-07-06 01:42:00,,0826.2,5.00,0.00,29.3,27.6,00.0,38.1,31.2,23.0,0000.0,0002.59,0001.36,0001.03
2022-07-06 01:43:00,,0826.2,5.00,0.00,29.3,27.7,00.0,38.1,31.2,22.9,0000.0,0002.10,0001.31,0001.02
2022-07-06 01:44:00,,0826.2,5.01,0.00,29.3,27.9,00.0,38.1,31.2,22.9,0000.0,0002.00,0001.29,0001.00
2022-07-06 01:45:00,,0826.1,5.00,0.00,29.3,28.0,00.0,38.1,31.3,23.1,0000.0,0002.25,0001.28,0000.98
2022-07-06 01:46:00,,0826.2,4.99,0.00,29.4,28.1,00.0,38.1,31.3,23.2,0000.0,0002.21,0001.26,0000.97
2022-07-06 01:47:00,,0826.2,5.00,0.00,29.4,28.2,00.0,38.1,31.4,23.3,0000.0,0002.21,0001.28,0000.97
2022-07-06 01:48:00,,0826.2,5.01,0.00,29.4,28.3,00.0,38.1,31.4,23.5,0000.0,0002.27,0001.30,0000.97
2022-07-06 01:49:00,,0826.2,5.00,0.00,29.5,28.4,00.0,38.2,31.4,23.7,0000.0,0002.19,0001.28,0000.98
2022-07-06 01:50:00,,0826.2,4.99,0.00,29.5,28.5,00.0,38.2,31.5,24.0,0000.0,0002.36,0001.32,0000.98
2022-07-06 01:51:00,,0826.2,5.00,0.00,29.5,28.6,00.0,38.2,31.5,24.0,0000.0,0002.43,0001.35,0000.99
2022-07-06 01:52:00,,0826.2,5.01,0.00,29.6,28.4,00.0,38.2,31.6,24.0,0000.0,0002.38,0001.32,0001.00
2022-07-06 01:53:00,,0826.2,5.01,0.00,29.6,27.6,00.0,38.1,31.4,24.0,0000.0,0002.37,0001.30,0001.00
2022-07-06 01:54:00,,0826.2,4.99,0.00,29.5,27.0,00.0,38.1,31.3,24.1,0000.0,0002.36,0001.32,0001.01
2022-07-06 01:55:00,,0826.2,5.01,0.00,29.4,26.9,00.0,38.1,31.2,24.2,0000.0,0002.35,0001.31,0001.01
2022-07-06 01:56:00,,0826.1,4.99,0.00,29.4,27.0,00.0,38.1,31.1,24.1,0000.0,0002.18,0001.33,0001.02
2022-07-06 01:57:00,,0826.2,5.00,0.00,29.3,27.1,00.0,38.1,31.1,24.1,0000.0,0002.12,0001.34,0001.04
2022-07-06 01:58:00,,0826.1,4.98,0.00,29.3,27.3,00.0,38.1,31.1,24.0,0000.0,0002.07,0001.33,0001.05
2022-07-06 01:59:00,,0826.1,5.00,0.00,29.3,27.5,00.0,38.1,31.2,24.0,0000.0,0002.03,0001.33,0001.05
